Tracking 28790 objects as of 19-Apr-2024
HD Live streaming from Space Station
objects crossing your sky now

CRRES DEB (CANISTER)

Track CRRES DEB (CANISTER) now!


NORAD ID: 29532
Int'l Code: 1990-065Z
Perigee: 293.3 km
Apogee: 31,587.1 km
Inclination: 17.6 °
Period: 552.8 minutes
Semi major axis: 22311 km
RCS: 0.0724 m2 (small)
Launch date: July 25, 1990
Source: United States (US)
Launch site: AIR FORCE EASTERN TEST RANGE (AFETR)

Note: This is SATELLITE DEBRIS
Your satellite tracking list
Your tracking list is empty




NASA's NSSDC Master Catalog

Two Line Element Set (TLE):
1 29532U 90065Z   24103.18879329  .00005536  00000-0  24632-2 0  9996
2 29532  17.5692 136.8498 7013024 288.6342  11.2512  2.60506571111706
Source of the keplerian elements: AFSPC